GFSNGP_925_temp_021.txt.gz
Temp
18 19 20 20 19 18 18 17 15 15 18 16 15 14 14 14 14 14 12 11 11 10 11 13 13 13 12 12 12 12 10 10 10 9 8 7 6 5 5 5 5 4 4 3
17 17 17 17 16 17 18 19 18 18 17 16 15 14 14 14 13 12 11 11 11 11 12 12 12 12 12 11 10 10 9 9 9 8 7 6 5 4 2 4 4 4 3 3
12 13 12 12 16 18 19 19 18 16 17 14 13 13 12 10 11 11 10 10 10 11 11 12 12 12 10 9 9 9 8 7 7 6 6 5 4 2 1 4 4 3 3 2
9 9 11 17 19 18 17 17 17 16 14 13 12 12 10 10 10 9 10 10 10 11 11 12 10 9 9 9 9 8 7 5 5 5 4 4 3 0 1 2 2 3 1 1
9 10 13 17 18 16 16 15 15 14 13 12 12 12 10 10 11 10 10 11 12 12 12 10 9 9 9 8 8 7 5 4 4 3 2 2 1 1 -0 2 2 2 1 -0
9 8 8 13 17 17 17 11 14 13 11 11 11 7 9 10 10 10 12 12 12 11 10 9 9 9 8 8 7 5 4 3 3 3 2 1 1 1 2 1 1 0 -1 -2
6 6 9 14 17 17 12 11 13 12 10 10 9 8 9 10 10 12 12 11 10 10 9 9 9 8 8 6 5 4 3 3 2 2 2 2 1 1 2 1 -0 -1 -2 -3
10 10 9 15 17 13 12 12 11 10 10 10 10 9 10 11 10 11 10 10 10 9 8 8 8 8 6 4 4 3 3 2 2 2 2 2 2 2 1 0 -1 -2 -3 -3
10 10 12 16 14 13 13 11 10 9 10 10 9 10 10 10 10 10 9 9 9 8 8 8 7 5 4 3 3 2 1 1 1 1 1 1 1 1 -0 -1 -2 -3 -3 -4
12 15 16 13 12 11 10 10 10 10 10 10 10 10 10 9 8 8 9 8 8 8 7 6 6 4 3 3 2 1 0 -0 -1 -1 -1 -0 -0 -1 -2 -2 -3 -3 -4 -5
12 15 15 12 11 11 9 9 10 11 11 11 10 10 9 7 7 7 7 7 7 6 6 5 4 3 3 3 2 1 -0 -1 -2 -2 -2 -1 -1 -2 -2 -3 -3 -4 -4 -5
9 13 12 10 10 10 9 9 10 10 10 11 9 7 7 7 7 6 6 6 5 5 5 3 2 2 2 2 1 0 -1 -2 -2 -2 -2 -2 -2 -2 -3 -3 -3 -4 -4 -5
12 11 10 9 10 10 9 10 10 11 10 7 8 7 7 6 6 5 5 5 4 3 3 2 2 1 0 -0 -1 -1 -1 -2 -2 -2 -3 -3 -3 -3 -4 -3 -4 -4 -4 -5
11 10 9 9 9 10 11 11 11 9 8 7 7 6 5 5 4 4 3 3 2 2 1 1 2 1 -0 -2 -2 -1 -1 -2 -2 -3 -3 -3 -4 -4 -4 -4 -4 -4 -4 -5
10 10 9 9 10 11 11 10 7 7 6 6 6 5 4 3 2 2 2 1 1 0 -0 -1 -1 -0 -1 -2 -2 -2 -2 -1 -2 -2 -3 -4 -4 -4 -4 -4 -4 -4 -4 -6
10 10 9 9 10 9 8 7 6 5 5 5 4 4 3 2 1 1 0 0 -1 -2 -1 -1 -1 -0 -1 -2 -2 -2 -2 -2 -2 -2 -3 -4 -4 -4 -4 -4 -4 -4 -5 -5
10 9 9 8 7 7 6 6 5 4 4 4 3 3 2 1 0 -0 -1 -1 -2 -2 -2 -1 -0 -0 -1 -2 -2 -3 -3 -3 -3 -3 -3 -4 -4 -4 -4 -4 -5 -5 -5 -5
10 9 8 7 7 6 4 4 4 4 3 3 3 2 1 0 -1 -1 -2 -2 -2 -2 -2 -1 -1 -1 -1 -2 -3 -3 -3 -4 -4 -4 -4 -4 -4 -4 -4 -4 -5 -5 -5 -5
9 8 8 7 6 5 4 4 4 3 3 2 2 1 0 -1 -1 -1 -2 -1 -1 -1 -1 -1 -1 -1 -2 -2 -3 -3 -4 -4 -4 -4 -4 -4 -4 -4 -4 -4 -5 -5 -5 -5
6 6 6 5 5 4 4 4 3 2 2 1 1 -0 -2 -1 -1 -1 -1 -1 -1 -1 -1 -2 -1 -1 -2 -3 -3 -3 -3 -4 -4 -3 -4 -4 -4 -4 -4 -4 -4 -5 -5 -5
5 5 5 5 5 4 3 3 2 2 2 1 0 -1 -1 -1 -1 -1 -1 -1 -1 -1 -1 -1 -1 -2 -2 -3 -3 -3 -3 -3 -4 -4 -4 -4 -4 -4 -4 -4 -4 -5 -5 -5
5 4 5 4 3 3 3 3 2 2 2 1 1 -0 -1 -1 -0 -1 -1 -1 -1 -1 -2 -2 -2 -2 -2 -2 -3 -3 -3 -4 -4 -4 -3 -4 -4 -4 -4 -4 -4 -5 -5 -6
4 4 4 4 3 3 3 3 3 2 1 1 0 1 1 1 0 -2 -2 -1 -1 -1 -2 -2 -2 -2 -2 -2 -2 -3 -3 -3 -4 -4 -4 -3 -4 -4 -4 -4 -4 -5 -5 -5
4 4 4 4 4 3 2 3 3 3 2 3 3 2 1 0 -1 -1 -1 -1 -1 -1 -1 -2 -2 -3 -3 -3 -3 -3 -4 -4 -4 -4 -4 -4 -4 -4 -4 -5 -5 -4 -5 -5
4 4 3 3 2 2 3 3 3 3 3 3 2 1 0 -0 -1 -1 -2 -2 -2 -2 -2 -2 -2 -2 -2 -3 -3 -3 -4 -4 -4 -4 -4 -4 -4 -5 -5 -5 -5 -5 -5 -5
3 3 4 4 3 4 4 4 3 3 3 2 1 0 -0 -1 -1 -2 -2 -2 -3 -2 -2 -3 -3 -3 -3 -3 -3 -3 -3 -4 -4 -4 -4 -5 -5 -5 -5 -6 -6 -6 -6 -6
4 4 4 4 4 4 3 2 1 -0 -0 -1 -1 -1 -1 -1 -2 -2 -2 -3 -3 -3 -3 -3 -3 -3 -3 -3 -3 -3 -3 -3 -4 -4 -4 -5 -5 -5 -5 -6 -6 -7 -7 -7

GFSNGP_925_temp_024.txt.gz
Temp
17 17 18 19 18 17 17 15 14 15 14 14 13 12 13 12 11 11 10 10 10 9 10 11 12 12 10 9 9 9 8 8 7 7 7 6 6 5 4 3 1 1 3 3
17 15 14 16 16 15 16 17 17 15 14 14 13 12 12 11 11 11 10 10 10 10 10 11 10 9 9 9 9 8 8 6 6 5 5 5 4 4 3 2 1 1 2 2
12 11 12 11 15 17 18 16 17 15 14 12 12 11 10 10 10 10 10 10 9 10 10 9 9 9 9 9 8 7 6 5 4 4 4 3 3 2 1 -0 -1 -1 1 1
8 8 11 16 16 17 16 16 13 13 12 12 11 10 9 9 9 9 9 10 9 9 9 9 9 9 9 8 7 6 4 4 4 3 3 2 2 -0 -1 -0 0 0 -0 -1
8 9 12 16 16 16 16 14 13 12 11 11 10 9 10 10 10 10 10 10 9 10 9 9 8 8 8 7 6 5 4 3 3 2 2 1 1 1 0 0 0 0 -1 -2
8 8 9 13 16 16 15 11 13 12 10 10 9 7 8 9 10 10 11 10 9 9 8 8 8 8 6 5 4 4 3 3 2 2 2 1 1 1 0 0 -0 -2 -2 -3
2 5 8 11 15 15 12 12 11 10 9 9 9 7 8 9 10 11 10 9 9 8 8 8 7 7 5 4 3 3 3 2 1 1 1 1 1 1 1 -0 -2 -2 -3 -4
5 5 10 12 15 13 11 11 10 9 9 9 9 9 9 10 10 9 8 8 8 7 7 6 6 6 4 4 3 3 2 1 0 0 0 1 1 0 -1 -1 -2 -3 -4 -4
10 10 12 13 14 13 11 10 9 8 9 9 9 9 9 8 7 7 7 7 7 6 6 6 5 4 3 3 3 2 1 0 -1 -1 -1 -1 -0 -1 -2 -2 -3 -4 -4 -5
11 13 12 13 11 11 10 9 9 10 10 10 9 9 7 6 6 6 6 6 6 5 5 5 4 3 2 2 2 1 0 -0 -1 -2 -2 -2 -2 -2 -3 -3 -4 -4 -4 -5
10 13 11 11 11 9 9 9 10 10 10 10 7 6 6 5 5 5 5 5 5 4 4 3 3 2 2 1 1 0 -0 -1 -1 -2 -2 -2 -3 -3 -3 -3 -4 -4 -4 -5
9 12 12 10 9 9 8 9 10 10 7 7 7 5 6 4 5 4 4 4 3 3 2 2 1 1 1 1 -0 -1 -1 -1 -2 -2 -3 -3 -3 -3 -3 -4 -4 -4 -4 -5
12 12 11 9 9 9 9 9 9 7 7 5 6 6 5 4 4 4 3 3 2 1 1 1 0 -0 0 0 -1 -2 -2 -2 -2 -3 -3 -3 -4 -3 -4 -4 -4 -4 -4 -5
10 9 9 9 8 9 10 9 8 7 6 6 5 5 4 3 3 3 2 1 1 0 -0 -0 -1 -1 -1 -0 -1 -2 -2 -2 -3 -2 -3 -3 -4 -4 -4 -4 -4 -4 -4 -5
9 10 9 9 10 9 8 7 5 4 4 4 4 4 3 2 2 2 1 1 -0 -1 -2 -2 -2 -1 -1 -1 -1 -2 -2 -2 -2 -2 -3 -3 -4 -4 -4 -4 -4 -5 -5 -5
8 8 9 10 9 7 7 5 5 4 4 4 3 3 3 2 1 1 0 -1 -2 -3 -2 -3 -3 -1 -1 -1 -2 -2 -2 -3 -3 -3 -3 -3 -4 -4 -4 -4 -5 -4 -5 -5
8 8 7 7 6 6 5 5 4 4 4 3 3 2 2 1 0 -0 -1 -2 -2 -2 -2 -2 -2 -2 -1 -2 -2 -2 -3 -3 -4 -4 -4 -4 -4 -4 -4 -4 -4 -4 -5 -5
9 7 7 6 5 4 3 3 4 4 3 3 2 2 1 0 -2 -2 -1 -1 -1 -2 -1 -2 -1 -2 -1 -1 -2 -2 -3 -3 -4 -4 -4 -4 -4 -4 -4 -4 -4 -4 -5 -5
7 6 6 6 6 5 4 3 3 3 3 3 2 1 0 -2 -1 -1 -1 -1 -1 -1 -1 -1 -1 -1 -1 -1 -2 -3 -3 -3 -4 -4 -4 -4 -4 -4 -4 -4 -4 -4 -4 -5
5 6 5 5 5 5 4 3 3 3 3 1 1 -0 -1 -0 -0 -1 -1 -2 -1 -0 -1 -1 -2 -2 -1 -1 -2 -3 -3 -4 -4 -4 -4 -4 -4 -4 -4 -4 -4 -4 -5 -5
4 5 5 5 4 4 4 4 3 2 3 2 0 -0 -0 1 0 -0 -1 -3 -1 -1 -1 -1 -2 -2 -2 -2 -2 -3 -3 -3 -4 -4 -4 -4 -4 -4 -4 -4 -4 -4 -5 -5
4 4 4 4 3 3 4 3 2 2 2 1 1 1 -0 -0 0 1 -0 -1 -1 -1 -1 -1 -1 -1 -2 -3 -3 -2 -3 -3 -3 -3 -4 -4 -4 -4 -4 -4 -4 -4 -5 -5
3 3 3 3 3 2 3 3 3 2 1 2 1 2 0 1 1 -1 -3 -1 -1 -2 -2 -2 -2 -2 -2 -3 -3 -3 -2 -3 -3 -4 -4 -4 -4 -4 -4 -4 -4 -4 -4 -5
3 3 3 3 3 2 1 3 3 3 3 3 3 3 2 0 0 -1 -1 -2 -2 -2 -3 -3 -3 -2 -2 -3 -3 -3 -3 -3 -3 -3 -4 -4 -4 -4 -4 -4 -5 -5 -5 -5
3 3 3 3 2 2 3 3 2 3 2 1 1 2 1 0 -2 -2 -2 -2 -2 -3 -3 -3 -3 -3 -3 -3 -3 -3 -3 -3 -3 -4 -4 -4 -4 -4 -4 -4 -5 -5 -6 -6
3 3 3 3 3 3 3 3 1 2 0 -0 -0 0 -0 -1 -2 -2 -2 -3 -3 -3 -3 -3 -3 -3 -3 -3 -3 -3 -3 -3 -3 -4 -4 -4 -4 -4 -4 -5 -5 -5 -6 -6
3 3 3 3 3 3 3 2 1 -1 0 0 -0 -1 -1 -1 -2 -2 -3 -3 -4 -4 -4 -5 -5 -5 -4 -4 -4 -4 -3 -3 -3 -3 -4 -4 -4 -4 -4 -5 -5 -6 -6 -7

GFSNGP_925_temp_030.txt.gz
Temp
14 14 16 17 16 14 15 14 14 15 12 14 13 11 10 9 8 8 8 9 9 8 9 9 9 9 8 9 8 8 8 7 5 5 4 4 4 3 2 1 0 0 0 -1
15 12 12 15 15 14 14 14 13 14 13 12 11 10 10 9 8 9 9 9 9 9 9 8 8 8 8 8 8 8 6 5 4 4 4 3 2 1 1 -0 0 -1 -1 -1
12 9 11 11 13 13 14 13 13 13 13 10 11 10 9 8 8 8 8 8 9 9 8 8 8 8 8 8 7 6 5 4 4 4 3 2 1 0 -0 -1 -1 -1 -1 -1
8 7 11 15 14 14 14 14 13 14 12 10 11 10 9 8 8 7 7 8 8 8 8 8 8 8 7 7 6 5 4 4 4 3 2 1 1 -0 -0 -1 -1 -1 -2 -2
7 8 12 17 14 13 14 14 12 12 11 10 8 9 10 7 7 7 7 8 8 8 8 8 7 7 7 6 5 5 4 3 3 2 1 1 1 0 0 -1 -1 -2 -2 -2
4 8 9 13 14 14 15 12 12 11 9 8 8 8 10 7 7 7 8 8 8 8 7 7 7 7 6 6 5 4 3 3 2 1 1 0 0 0 -0 -1 -1 -2 -2 -3
2 5 9 11 14 14 13 13 10 10 9 7 8 9 9 6 7 8 8 7 7 7 7 6 6 5 5 4 3 3 2 2 2 1 0 -1 -0 -0 -1 -1 -2 -2 -3 -4
6 4 11 11 14 13 12 11 10 9 8 9 8 7 7 7 6 6 6 6 6 6 5 5 5 4 3 3 2 2 2 1 0 -0 -1 -1 -1 -1 -2 -2 -3 -3 -4 -4
9 10 11 11 12 12 10 11 10 9 8 9 8 7 6 5 5 6 6 5 5 5 4 4 3 3 2 2 1 1 1 0 -1 -1 -2 -2 -2 -2 -3 -3 -3 -4 -4 -5
10 13 10 10 10 10 10 10 10 9 8 8 8 7 6 5 3 4 4 4 4 3 3 2 2 2 1 1 0 0 0 0 -0 -1 -2 -3 -3 -3 -3 -3 -4 -4 -5 -5
9 10 10 10 10 10 9 9 8 8 8 8 6 5 5 3 3 4 4 3 3 2 1 1 1 1 0 -0 -0 -1 -1 -1 -1 -2 -3 -3 -3 -3 -4 -4 -4 -5 -5 -5
10 12 12 12 12 9 8 8 8 8 6 6 6 4 4 3 4 3 3 2 2 1 1 0 -0 -0 -1 -1 -1 -2 -2 -2 -2 -3 -3 -3 -3 -4 -4 -5 -4 -5 -5 -5
11 12 9 10 8 8 8 8 7 6 6 5 5 5 4 3 3 3 2 1 1 0 -0 -1 -1 -2 -2 -2 -2 -2 -2 -2 -3 -3 -3 -4 -4 -4 -4 -4 -4 -4 -5 -5
10 9 10 8 9 8 8 6 6 5 5 4 4 4 4 3 2 2 1 1 0 -0 -1 -2 -2 -2 -3 -3 -2 -2 -2 -2 -3 -3 -3 -4 -4 -4 -4 -4 -4 -5 -4 -5
9 8 8 8 7 5 6 6 5 4 3 2 3 3 3 2 1 1 1 0 -0 -1 -1 -2 -2 -2 -2 -2 -2 -3 -2 -2 -2 -3 -4 -4 -4 -4 -4 -4 -4 -5 -5 -5
8 7 6 6 5 5 5 3 2 1 2 2 3 2 2 2 1 1 1 0 -1 -1 -1 -1 -1 -1 -1 -2 -2 -2 -2 -2 -3 -3 -4 -3 -4 -5 -5 -5 -5 -5 -4 -4
7 5 4 4 3 3 2 2 2 2 3 3 2 2 1 1 1 1 1 0 -0 -1 -0 -1 -1 -1 -1 -1 -1 -2 -2 -3 -3 -3 -4 -4 -4 -4 -5 -5 -5 -5 -5 -5
3 3 3 2 2 1 1 2 2 3 2 3 2 2 1 -0 -0 1 1 0 -0 -0 0 0 -0 -1 -1 -1 -2 -2 -3 -3 -3 -4 -4 -4 -4 -4 -5 -5 -5 -5 -5 -5
2 1 1 1 1 1 2 2 2 2 2 2 1 1 0 -0 0 0 0 -0 -0 -1 1 -0 -1 -1 -1 -1 -2 -2 -2 -3 -3 -3 -4 -4 -4 -4 -4 -4 -5 -5 -5 -5
2 2 2 2 2 2 3 3 3 2 2 1 1 0 -0 1 1 -0 -1 -1 -0 0 0 -0 -1 -1 -2 -2 -2 -2 -2 -3 -3 -4 -4 -4 -4 -4 -4 -5 -5 -5 -5 -5
2 3 2 2 2 3 3 2 2 2 2 1 0 1 -0 -0 -0 -1 -3 -4 1 1 -0 -1 -2 -2 -4 -4 -4 -4 -3 -3 -4 -4 -4 -4 -4 -4 -4 -4 -4 -5 -5 -5
2 2 2 2 2 2 2 2 2 2 2 2 2 1 -0 -2 -1 -0 0 -1 2 1 -1 -2 -3 -4 -4 -4 -4 -3 -3 -4 -3 -4 -4 -4 -5 -5 -5 -5 -5 -4 -4 -5
2 2 2 2 1 1 2 2 2 2 1 2 1 1 0 0 -0 -3 -3 1 -1 -1 -2 -3 -4 -4 -4 -4 -4 -4 -4 -4 -4 -4 -4 -4 -4 -5 -5 -5 -5 -5 -5 -5
2 1 1 1 1 0 -1 -0 -0 0 0 0 0 1 -0 -1 -0 -0 0 -0 -0 -1 -3 -3 -4 -4 -4 -4 -4 -5 -5 -4 -4 -4 -4 -4 -4 -4 -5 -5 -5 -5 -5 -5
-0 -1 -1 -2 -3 -3 -3 -3 -3 -3 -3 -3 -3 -2 -2 -2 -3 -2 -2 -1 -2 -3 -3 -4 -5 -5 -6 -6 -7 -7 -7 -7 -7 -6 -5 -4 -4 -5 -4 -5 -5 -5 -5 -5
-3 -4 -4 -4 -4 -5 -5 -6 -5 -5 -4 -3 -3 -3 -3 -3 -3 -3 -2 -2 -3 -4 -4 -5 -6 -6 -7 -7 -8 -9 -10 -10 -10 -10 -9 -7 -6 -5 -5 -4 -4 -5 -5 -5
-5 -5 -5 -6 -7 -7 -8 -7 -7 -6 -6 -6 -5 -4 -3 -3 -3 -3 -3 -3 -4 -5 -6 -6 -7 -8 -8 -8 -9 -10 -11 -11 -11 -11 -10 -9 -8 -7 -5 -4 -4 -5 -5 -5

GFSNGP_925_temp_036.txt.gz
Temp
20 20 20 22 22 22 22 23 21 24 23 25 24 24 23 22 21 19 18 17 17 17 15 14 13 12 12 11 10 10 10 9 9 7 6 5 5 4 4 3 3 3 2 1
19 18 19 19 21 22 22 23 22 23 23 25 24 22 21 20 19 18 17 17 16 16 15 14 13 12 11 11 10 9 9 8 7 6 5 5 4 3 3 3 3 2 2 2
20 17 18 16 20 22 22 22 22 22 23 23 21 20 21 20 19 18 17 17 16 16 14 13 12 11 10 10 9 8 8 7 6 5 5 4 4 3 3 3 3 2 1 1
17 14 17 23 20 20 22 22 23 22 23 21 22 20 19 20 19 18 17 16 16 14 13 12 11 10 10 9 8 8 7 6 5 5 4 4 3 3 3 2 2 1 0 0
16 18 20 23 20 19 19 22 22 22 22 20 17 17 19 18 18 18 17 16 15 14 12 11 10 9 9 8 7 6 6 6 5 4 4 4 3 3 2 2 2 1 0 1
14 17 17 20 18 18 19 20 20 20 20 17 17 18 21 18 16 16 16 15 13 11 10 9 9 8 8 8 7 6 5 5 4 4 3 3 3 2 2 2 2 0 0 -0
15 16 18 20 18 18 18 20 19 18 19 18 18 20 17 17 16 15 14 12 10 9 9 9 7 7 7 7 6 5 4 4 4 3 3 2 2 2 1 1 1 0 -1 -1
13 14 16 17 17 18 19 19 18 18 18 17 18 15 15 15 14 13 12 9 9 8 7 6 6 6 7 6 5 4 3 3 3 3 2 1 1 2 1 1 0 -1 -2 -3
18 19 18 18 19 18 17 17 18 17 18 16 16 15 13 13 12 11 10 9 8 7 6 5 5 5 5 5 3 3 2 3 3 2 1 1 1 1 1 1 0 -1 -1 -1
16 19 18 18 18 18 18 17 17 17 17 16 16 15 13 11 11 10 7 7 6 5 6 5 4 3 3 3 2 2 2 2 2 2 2 1 1 0 0 -0 -1 -2 -2 -2
16 18 19 18 17 16 16 16 16 16 14 14 15 13 12 10 8 7 5 3 5 6 5 5 3 3 2 2 1 1 1 1 1 1 1 1 1 0 -0 -1 -2 -2 -2 -3
17 15 15 17 16 15 14 15 14 14 12 12 12 11 10 7 5 4 3 4 5 4 3 3 2 2 2 1 0 -0 0 1 1 1 0 0 0 -0 -1 -2 -3 -3 -4 -4
14 14 14 14 14 12 12 12 11 11 10 9 8 6 5 4 2 3 4 3 4 3 2 1 1 1 1 -0 -1 -1 -1 -1 -1 -2 -2 -1 -1 -1 -1 -2 -3 -3 -4 -4
12 13 14 11 10 10 9 8 6 5 4 3 2 1 1 2 2 3 4 3 3 2 1 2 1 1 0 -0 -0 -1 -1 -1 -2 -1 -2 -2 -1 -2 -2 -2 -2 -2 -3 -4
10 10 10 9 9 8 6 4 3 3 1 0 0 1 2 3 3 3 3 1 1 1 2 1 2 2 1 0 -0 -0 -0 -0 -1 -2 -3 -3 -3 -3 -2 -3 -3 -3 -3 -3
8 8 7 6 5 4 3 2 2 2 1 2 4 4 4 3 3 2 2 1 0 2 2 2 0 0 0 0 0 0 0 -0 -1 -1 -2 -2 -3 -3 -3 -3 -3 -3 -3 -3
7 4 4 3 3 3 3 3 4 4 5 5 4 3 3 2 0 1 1 1 1 1 1 0 1 1 0 0 -0 0 0 0 -0 -2 -2 -2 -3 -3 -3 -3 -3 -3 -3 -3
6 5 5 4 4 3 3 3 3 3 3 2 1 1 0 -0 0 0 0 0 0 0 1 1 1 0 -0 -0 -0 -0 -1 -1 -2 -2 -2 -2 -3 -3 -3 -3 -3 -3 -3 -3
5 5 5 5 4 4 4 4 3 2 1 1 0 0 0 0 -0 -0 -1 -1 -2 -1 2 1 1 0 -1 -1 -2 -3 -3 -3 -3 -3 -3 -3 -3 -3 -3 -3 -3 -3 -3 -3
5 4 4 3 2 2 2 1 1 2 1 0 -0 -0 -1 -0 -1 -1 -1 -2 -1 0 1 -0 -0 -1 -1 -2 -2 -3 -3 -3 -3 -3 -4 -3 -3 -3 -3 -3 -3 -3 -3 -4
4 3 2 1 1 0 -1 -1 -1 -1 -1 -1 -2 -2 -2 -2 -1 -2 -1 1 1 0 -1 -2 -2 -1 -1 -1 -3 -3 -3 -3 -3 -3 -4 -4 -4 -3 -3 -3 -3 -4 -4 -4
4 1 -0 -0 0 0 -1 -2 -2 -3 -3 -3 -4 -4 -3 -2 -2 -2 -2 -2 -2 -2 -3 -3 -3 -2 -2 -2 -3 -3 -4 -4 -3 -4 -4 -4 -4 -3 -3 -3 -3 -3 -4 -4
2 1 -1 -2 -2 -1 -2 -3 -4 -4 -5 -4 -4 -4 -4 -4 -3 -3 -2 -2 -3 -4 -4 -4 -4 -3 -3 -4 -3 -4 -4 -4 -5 -5 -5 -5 -5 -5 -5 -4 -4 -4 -4 -4
-0 -2 -2 -3 -3 -3 -2 -3 -4 -4 -5 -5 -5 -6 -5 -5 -5 -4 -5 -5 -5 -4 -4 -4 -4 -4 -4 -4 -5 -5 -6 -7 -7 -7 -8 -8 -7 -7 -7 -6 -6 -5 -5 -4
-3 -2 -3 -3 -2 -3 -4 -5 -4 -4 -5 -5 -6 -6 -6 -6 -6 -7 -7 -7 -6 -6 -5 -5 -4 -6 -7 -7 -8 -8 -8 -9 -10 -10 -10 -10 -10 -10 -10 -10 -9 -9 -8 -6
-3 -3 -4 -5 -5 -6 -6 -7 -7 -6 -7 -7 -7 -8 -8 -8 -8 -8 -8 -8 -7 -8 -8 -9 -10 -10 -10 -11 -11 -11 -11 -11 -12 -12 -12 -12 -12 -12 -12 -12 -11 -10 -9 -8
-5 -6 -5 -5 -7 -8 -9 -9 -9 -9 -9 -9 -10 -10 -10 -9 -9 -9 -10 -10 -10 -11 -11 -12 -13 -13 -13 -13 -13 -13 -13 -13 -14 -15 -14 -14 -14 -14 -14 -14 -13 -12 -11 -11

GFSNGP_925_temp_042.txt.gz
Temp
26 26 26 25 26 26 25 25 23 23 25 27 28 27 27 27 26 26 26 25 25 23 21 20 19 18 16 15 13 12 12 13 13 12 11 10 9 8 7 6 6 5 5 5
23 24 25 24 24 25 25 26 26 26 26 28 28 26 26 26 25 26 25 25 24 23 22 20 19 17 16 14 13 12 13 12 11 10 10 9 8 7 6 6 6 6 5 5
20 21 21 18 22 23 24 26 26 24 26 27 26 26 25 25 25 24 24 23 23 22 21 20 19 17 15 14 13 12 11 11 10 9 8 8 7 7 6 6 5 5 4 4
18 15 17 23 25 25 24 25 26 26 25 25 23 24 24 24 24 23 23 22 22 21 21 20 18 16 15 13 12 11 10 10 9 9 8 7 7 7 6 6 5 4 4 3
15 19 22 23 24 23 23 23 23 23 23 24 23 22 22 23 22 21 21 22 21 21 20 18 17 15 13 12 11 10 9 8 8 8 7 6 6 6 6 5 5 4 4 3
17 17 16 22 22 23 23 20 22 22 22 22 22 19 20 21 21 21 21 21 20 19 18 16 14 13 12 11 10 9 8 7 6 6 6 6 5 5 5 4 4 4 3 2
16 16 19 23 22 22 19 19 21 21 21 20 20 19 19 19 20 20 20 19 18 16 15 13 12 11 9 7 7 6 6 6 6 6 5 5 5 4 4 3 3 3 2 1
17 14 15 22 21 19 20 21 20 20 20 19 20 19 20 19 18 19 18 15 14 12 9 7 7 6 6 5 6 6 5 4 4 4 4 4 4 4 3 3 3 3 2 1
19 18 21 22 21 21 21 20 19 19 19 19 19 19 19 18 17 16 15 14 12 8 6 5 4 4 4 4 5 5 3 2 2 3 4 4 4 3 3 3 2 2 1 0
20 22 22 22 21 19 18 18 18 19 18 17 16 17 18 16 15 10 8 7 5 4 4 3 4 5 5 5 5 2 2 3 3 4 4 3 3 3 3 3 2 1 0 -0
20 21 21 19 17 16 17 17 16 17 15 15 16 15 14 12 8 5 4 3 4 4 4 5 5 4 4 4 3 2 2 3 3 2 2 2 3 3 3 2 1 1 0 -0
17 17 17 15 15 15 14 14 14 14 12 11 10 8 5 4 3 3 3 4 4 4 4 4 4 4 4 3 3 3 2 2 2 2 1 1 1 1 1 1 0 0 -0 -1
17 16 16 14 13 12 11 10 9 9 7 5 3 3 3 2 2 3 4 4 4 4 5 5 4 3 3 3 3 2 1 1 1 1 1 0 0 -0 -1 -0 -1 -1 -0 -1
15 15 13 14 10 9 8 6 5 5 5 5 4 4 3 3 3 4 4 5 5 5 4 4 4 4 4 4 3 3 2 1 1 1 1 1 1 0 -0 -1 -1 -1 -1 -1
13 13 12 10 9 9 7 6 6 5 5 5 5 5 6 6 6 6 5 5 4 4 4 5 4 3 3 3 3 3 2 2 2 2 2 1 1 -0 -1 -2 -2 -2 -2 -2
11 10 10 9 8 8 7 7 6 5 6 6 5 5 6 5 5 4 5 3 2 1 1 1 2 3 2 2 2 2 3 3 3 3 2 1 1 -0 -1 -2 -2 -2 -2 -1
8 8 8 7 7 8 7 6 5 5 5 4 2 1 1 1 3 2 2 1 1 1 1 1 1 1 1 1 2 2 2 2 2 2 1 0 -1 -1 -1 -1 -2 -2 -2 -1
9 9 8 7 6 6 6 5 4 3 2 0 -0 -0 -1 -1 -0 0 -1 -1 -2 -1 1 0 -1 -1 -1 -1 -0 -1 -1 -0 0 0 0 -0 -1 -2 -2 -2 -2 -3 -2 -2
8 8 7 7 6 6 5 3 3 1 -0 -1 -1 -2 -2 -2 -2 -2 -2 -2 -1 0 -1 -1 -2 -2 -2 -2 -2 -2 -2 -2 -2 -1 -1 -1 -2 -2 -2 -2 -3 -2 -3 -3
7 6 5 3 3 3 1 1 2 1 -1 -2 -2 -3 -3 -2 -2 -2 -2 -2 -0 -4 -4 -4 -4 -4 -3 -3 -3 -3 -3 -3 -3 -3 -2 -2 -2 -2 -3 -3 -3 -3 -3 -3
5 4 2 1 0 -0 -1 -1 -1 -1 -2 -3 -4 -4 -4 -4 -2 -3 -2 -2 -3 -5 -5 -6 -5 -5 -6 -6 -6 -5 -4 -4 -3 -3 -3 -2 -2 -3 -4 -4 -4 -4 -4 -4
3 1 1 1 1 0 -1 -2 -3 -3 -4 -4 -4 -5 -5 -4 -4 -3 -3 -4 -6 -6 -7 -7 -7 -8 -8 -7 -7 -6 -5 -4 -4 -3 -3 -4 -5 -5 -6 -6 -6 -7 -7 -7
2 0 -0 0 1 -0 -2 -2 -2 -3 -4 -4 -4 -5 -5 -5 -5 -5 -5 -6 -7 -8 -8 -8 -9 -10 -10 -9 -9 -8 -8 -7 -8 -7 -7 -7 -7 -7 -8 -8 -8 -9 -9 -9
2 1 0 -0 -0 -0 -0 -2 -2 -2 -3 -4 -4 -5 -6 -6 -6 -6 -7 -8 -9 -9 -9 -10 -10 -11 -12 -11 -11 -11 -11 -10 -11 -11 -10 -10 -10 -10 -10 -10 -10 -11 -10 -10
0 -0 -0 0 0 -1 -2 -3 -2 -3 -4 -5 -5 -6 -7 -7 -7 -8 -8 -9 -9 -10 -10 -11 -11 -12 -13 -13 -13 -13 -13 -13 -13 -13 -13 -13 -12 -12 -13 -13 -13 -13 -13 -12
1 0 -2 -2 -3 -3 -4 -5 -5 -5 -6 -6 -7 -8 -8 -8 -9 -9 -9 -10 -10 -11 -11 -11 -12 -12 -13 -14 -14 -14 -15 -15 -15 -15 -15 -15 -15 -15 -15 -15 -15 -15 -14 -14
-3 -2 -1 -2 -4 -5 -7 -7 -7 -8 -7 -9 -9 -9 -8 -9 -9 -10 -10 -11 -11 -12 -12 -13 -13 -13 -14 -14 -15 -15 -15 -16 -16 -16 -17 -17 -17 -17 -17 -17 -16 -16 -16 -15

GFSNGP_925_temp_045.txt.gz
Temp
22 22 23 24 23 23 23 21 18 19 21 21 22 22 23 21 22 24 22 20 19 18 15 17 16 16 15 14 13 13 12 12 12 11 11 9 9 9 7 7 6 6 5 5
21 22 21 20 21 22 21 22 22 22 22 22 23 21 20 21 21 21 19 21 19 16 16 16 15 15 14 13 13 12 12 12 11 10 9 8 7 7 7 6 6 6 5 5
18 17 18 15 19 20 21 21 22 21 20 19 19 19 19 19 19 19 19 18 19 17 17 16 16 14 13 13 13 12 11 10 10 9 7 8 7 7 6 6 6 5 5 4
13 13 14 18 22 22 21 20 19 19 19 19 19 17 17 16 16 17 17 17 17 18 18 16 15 14 13 12 11 10 10 9 8 7 7 7 7 6 6 5 5 5 4 4
12 12 16 19 21 22 20 18 18 18 18 18 19 16 15 17 17 17 17 16 17 16 15 14 13 12 11 11 10 9 8 7 6 6 6 6 5 4 4 4 5 4 4 4
11 12 12 16 21 21 21 15 18 17 16 16 16 12 14 15 16 15 14 13 12 11 11 11 10 11 9 7 6 6 6 5 5 5 4 4 5 4 4 4 4 4 3 3
8 9 12 19 20 21 15 14 17 17 16 16 15 14 15 16 14 13 11 8 7 6 6 6 6 7 5 5 5 5 4 3 4 4 5 4 3 3 4 3 3 3 3 2
11 11 13 19 20 16 15 16 15 16 15 15 15 15 16 14 12 11 8 6 5 4 4 4 5 5 5 4 5 4 4 3 4 4 3 2 3 3 4 4 3 3 2 2
13 12 15 17 15 15 14 14 15 14 13 14 13 14 12 8 7 6 5 4 3 3 3 4 5 5 4 4 4 4 4 3 2 2 3 3 3 3 3 3 3 3 2 1
15 18 17 15 15 15 14 13 13 12 12 13 12 10 8 6 5 4 3 3 3 4 4 4 5 5 4 4 4 4 3 3 3 2 3 3 3 3 3 2 2 2 1 1
16 15 13 13 13 13 12 12 10 9 8 8 7 6 5 4 4 4 4 4 5 4 5 5 4 5 4 4 3 3 3 2 2 2 2 2 2 2 1 1 0 0 0 0
11 13 12 11 11 11 10 9 9 7 5 5 5 4 4 4 4 3 3 4 4 4 4 4 4 4 4 4 3 3 3 2 2 2 1 1 1 1 1 0 0 -0 -0 -1
13 12 10 9 7 7 7 6 6 5 4 4 3 3 2 2 3 3 4 4 4 4 4 4 4 4 4 4 4 3 3 3 2 2 1 1 1 1 0 1 1 0 -0 -1
12 11 9 9 6 6 6 5 5 4 4 3 3 3 3 3 3 4 4 4 4 4 4 3 3 3 3 3 3 3 3 3 2 2 2 1 1 0 0 -1 -1 -1 -0 -0
9 10 8 8 6 6 5 5 4 3 3 3 4 4 4 3 3 3 3 3 3 2 2 2 1 1 1 1 1 1 1 2 2 2 2 1 0 -1 -0 -1 -1 -1 -2 -1
9 8 7 7 6 5 5 4 3 3 3 3 2 1 2 2 2 1 1 0 -0 -2 -1 -1 -1 -1 -1 -1 -1 -1 -1 -1 -1 -1 -1 -1 -1 -1 -1 -2 -2 -2 -2 -3
7 6 6 6 6 6 5 5 4 3 2 -0 -2 -1 -1 -0 -0 -1 -1 -1 -1 -1 -2 -2 -3 -3 -3 -2 -2 -2 -3 -2 -2 -2 -2 -2 -2 -2 -1 -2 -2 -2 -2 -2
8 7 7 5 5 4 3 2 1 -1 -2 -2 -2 -3 -3 -3 -3 -3 -2 -2 -1 -2 -3 -4 -4 -4 -4 -4 -5 -5 -5 -5 -4 -4 -3 -3 -3 -2 -2 -2 -2 -2 -2 -2
7 6 6 6 4 3 2 0 -1 -2 -2 -3 -2 -3 -3 -3 -3 -3 -2 -2 -5 -5 -5 -6 -6 -6 -7 -7 -7 -6 -6 -6 -6 -5 -5 -4 -4 -3 -3 -2 -3 -3 -3 -3
4 3 2 1 1 0 -1 -1 -2 -3 -3 -3 -4 -4 -4 -3 -3 -3 -3 -4 -6 -7 -7 -7 -7 -8 -9 -8 -8 -8 -7 -7 -7 -6 -5 -4 -4 -4 -3 -3 -4 -5 -5 -5
2 1 -0 -1 -2 -2 -2 -2 -2 -4 -4 -4 -4 -5 -4 -4 -4 -4 -5 -6 -7 -8 -8 -8 -10 -10 -10 -10 -10 -10 -10 -9 -9 -9 -8 -7 -7 -7 -6 -7 -7 -8 -8 -8
1 0 -1 -1 -2 -2 -3 -3 -3 -4 -4 -4 -5 -5 -5 -6 -6 -6 -6 -8 -9 -9 -9 -10 -11 -11 -11 -12 -12 -12 -12 -11 -12 -12 -11 -10 -9 -9 -9 -9 -10 -10 -10 -10
-0 -0 -1 -1 -2 -2 -2 -3 -3 -3 -4 -5 -6 -6 -6 -6 -7 -7 -8 -9 -9 -10 -10 -11 -11 -12 -12 -13 -13 -13 -13 -13 -14 -14 -14 -13 -13 -12 -12 -13 -13 -13 -12 -12
-1 -1 -1 -1 -1 -2 -3 -3 -4 -4 -4 -5 -6 -7 -7 -7 -8 -8 -9 -9 -10 -10 -11 -11 -12 -12 -13 -13 -14 -15 -15 -15 -16 -16 -15 -15 -15 -15 -15 -15 -15 -15 -14 -14
-0 -1 -1 -1 -3 -4 -4 -4 -5 -6 -6 -6 -7 -8 -8 -8 -9 -9 -10 -10 -11 -11 -12 -12 -12 -13 -14 -14 -15 -15 -16 -16 -16 -16 -17 -17 -17 -17 -17 -17 -16 -16 -16 -15
-2 -3 -4 -4 -5 -6 -6 -6 -7 -7 -7 -8 -8 -9 -9 -9 -10 -10 -11 -11 -12 -12 -13 -13 -14 -14 -15 -15 -15 -16 -16 -17 -17 -17 -18 -18 -19 -19 -19 -18 -18 -17 -17 -17
-3 -3 -5 -6 -7 -7 -7 -8 -8 -9 -9 -9 -9 -9 -10 -10 -11 -11 -12 -12 -13 -13 -14 -14 -15 -15 -15 -16 -16 -17 -17 -18 -18 -18 -19 -19 -20 -20 -20 -20 -19 -19 -18 -18

GFSNGP_925_temp_048.txt.gz
Temp
20 21 22 22 22 22 21 19 17 19 18 20 20 21 19 19 21 19 18 17 17 16 14 16 16 16 14 13 12 12 11 11 11 11 10 10 9 7 7 7 6 6 6 5
20 19 20 20 21 20 21 21 20 21 20 16 18 18 17 18 18 17 18 17 17 15 14 14 14 13 12 11 11 11 11 11 10 9 8 8 8 7 7 6 6 6 6 5
17 16 17 14 18 19 20 20 20 18 18 18 16 16 16 15 16 16 15 16 15 14 14 13 13 12 10 10 10 11 10 9 8 8 7 7 7 6 6 5 5 6 5 5
12 12 13 17 19 19 17 17 17 17 17 16 15 14 14 14 15 15 15 14 14 14 13 13 12 11 10 11 10 9 8 7 7 6 6 5 4 5 3 4 5 4 5 4
12 12 15 18 20 18 17 17 17 16 16 16 15 14 14 13 12 12 11 10 9 9 9 10 10 10 9 8 7 6 5 5 5 4 5 5 3 3 4 4 4 4 4 4
10 12 13 15 19 18 17 14 17 15 15 16 15 12 13 12 10 8 7 7 6 6 7 7 7 7 6 5 5 4 4 4 4 5 4 4 3 3 3 4 4 3 3 3
7 10 12 15 18 19 16 14 16 14 14 15 14 12 11 9 7 6 6 5 5 5 4 5 5 5 4 4 4 4 5 5 5 4 3 3 3 3 3 3 3 3 3 3
9 9 14 16 18 17 14 14 13 14 13 12 11 11 10 8 7 5 4 4 4 4 4 5 6 6 5 5 5 5 5 4 3 3 3 3 3 3 3 3 3 3 3 3
12 12 14 14 14 13 13 13 13 11 12 11 9 7 6 5 4 4 3 3 4 5 5 5 5 6 5 4 4 4 4 3 3 3 3 3 2 2 2 2 2 2 2 2
14 13 13 12 12 12 11 9 9 10 10 9 7 6 5 4 4 3 4 4 4 4 4 4 4 4 4 4 4 3 3 3 3 2 2 2 2 2 2 2 2 1 1 1
11 12 12 11 10 10 8 7 6 6 6 6 5 4 4 4 5 4 4 4 4 4 4 4 4 4 4 4 4 3 3 3 3 2 2 2 2 2 1 1 1 1 1 0
10 12 11 9 8 9 8 7 6 5 4 4 4 4 4 3 3 3 3 4 4 4 4 4 4 4 3 3 3 3 3 3 3 3 2 2 2 2 2 1 1 1 1 1
11 10 8 6 6 6 5 5 4 4 3 2 2 2 2 2 3 3 3 3 3 3 2 2 2 2 1 1 1 1 1 1 1 1 1 1 1 0 -1 1 1 1 1 1
8 8 7 7 5 5 4 4 3 3 3 2 2 2 2 2 2 1 1 1 2 2 1 -0 -0 -1 -1 -1 -0 -0 -1 -1 -1 -1 -1 -2 -2 -2 -2 -2 -2 -1 -1 -1
8 8 6 5 5 4 4 4 3 2 1 1 2 2 2 1 -0 -1 -0 1 0 -1 -2 -3 -2 -3 -2 -2 -2 -2 -3 -3 -3 -3 -3 -2 -3 -2 -2 -2 -2 -2 -2 -2
6 6 5 5 4 4 3 3 2 1 1 1 -0 -0 -0 -1 -1 -1 -1 -1 -2 -3 -3 -3 -4 -5 -4 -4 -5 -5 -5 -5 -5 -5 -5 -4 -4 -4 -3 -3 -2 -2 -2 -3
5 4 4 4 4 3 3 2 2 1 -1 -2 -3 -2 -1 -1 -2 -2 -2 -3 -3 -4 -5 -6 -6 -6 -6 -7 -7 -7 -7 -7 -7 -7 -6 -6 -6 -5 -5 -5 -4 -3 -2 -2
6 6 6 5 4 3 1 0 -1 -2 -2 -3 -3 -3 -3 -3 -3 -3 -4 -4 -4 -6 -7 -7 -7 -7 -7 -8 -8 -8 -8 -8 -8 -7 -7 -7 -6 -5 -5 -5 -4 -4 -3 -3
6 5 5 4 3 1 -0 -2 -3 -3 -3 -3 -3 -4 -4 -4 -4 -4 -5 -6 -7 -7 -8 -8 -8 -9 -9 -10 -10 -10 -10 -10 -10 -10 -9 -9 -8 -7 -7 -8 -6 -5 -5 -6
3 2 2 1 0 -1 -2 -3 -3 -4 -4 -3 -4 -4 -5 -5 -4 -5 -6 -8 -9 -9 -9 -9 -10 -11 -11 -11 -12 -12 -12 -12 -12 -12 -12 -12 -11 -10 -9 -9 -10 -10 -10 -10
1 0 -1 -1 -2 -2 -3 -3 -4 -5 -5 -4 -5 -5 -6 -6 -6 -6 -7 -7 -9 -9 -10 -11 -11 -12 -12 -12 -13 -13 -13 -14 -14 -14 -14 -14 -13 -12 -13 -13 -13 -12 -12 -12
-0 -1 -2 -2 -2 -3 -3 -3 -4 -5 -5 -5 -6 -6 -6 -7 -7 -8 -9 -9 -10 -10 -11 -11 -12 -12 -13 -13 -14 -14 -15 -15 -16 -16 -16 -16 -15 -15 -15 -15 -15 -14 -14 -14
-1 -2 -2 -3 -3 -3 -4 -4 -4 -5 -6 -6 -7 -7 -7 -8 -8 -9 -9 -10 -10 -11 -11 -12 -12 -13 -13 -14 -14 -15 -16 -16 -16 -17 -17 -17 -17 -17 -17 -16 -16 -16 -16 -16
-1 -2 -2 -3 -3 -4 -4 -5 -5 -6 -6 -7 -7 -8 -8 -8 -9 -10 -10 -10 -11 -12 -12 -13 -13 -14 -14 -15 -15 -16 -16 -17 -17 -18 -18 -18 -18 -19 -18 -18 -18 -18 -17 -17
-1 -2 -3 -3 -4 -4 -5 -6 -6 -7 -7 -8 -8 -9 -9 -9 -9 -11 -11 -11 -12 -12 -13 -13 -14 -14 -15 -15 -16 -16 -17 -17 -18 -18 -19 -19 -19 -20 -20 -20 -19 -19 -19 -18
-3 -4 -5 -5 -6 -6 -6 -7 -8 -8 -8 -9 -9 -9 -10 -10 -11 -11 -12 -12 -13 -13 -14 -14 -15 -15 -16 -16 -17 -17 -17 -18 -18 -19 -20 -20 -20 -20 -20 -20 -20 -20 -20 -20
-5 -6 -7 -7 -8 -8 -8 -8 -9 -10 -10 -10 -10 -10 -11 -11 -12 -12 -13 -13 -14 -15 -15 -15 -16 -16 -17 -17 -17 -18 -18 -19 -19 -20 -20 -20 -20 -21 -21 -21 -21 -21 -20 -21

GFSNGP_925_temp_054.txt.gz
Temp
17 19 19 19 19 16 17 17 16 18 15 18 17 16 15 14 15 17 15 15 14 13 12 13 13 12 12 12 11 10 9 8 7 8 8 8 8 7 6 6 5 5 5 4
18 18 18 19 19 16 17 18 16 17 17 16 16 15 14 13 14 14 13 12 13 14 13 12 11 10 10 10 10 9 9 7 7 8 8 7 6 6 5 5 5 5 4 4
17 15 17 14 16 17 18 17 17 16 16 15 15 14 13 13 12 11 10 9 9 9 9 10 10 9 8 8 8 8 8 7 8 7 6 6 5 5 5 5 4 3 3 3
11 12 13 18 17 17 16 17 16 15 16 14 13 11 9 8 10 8 7 7 6 6 6 7 7 7 7 7 7 7 6 6 5 5 5 5 5 5 4 4 3 3 3 4
13 12 15 17 16 16 16 16 15 14 12 12 11 12 9 7 6 5 5 4 4 5 5 5 5 6 6 5 5 5 4 5 5 5 5 4 4 4 4 3 3 3 3 3
9 12 13 15 16 15 16 15 14 13 12 12 12 12 11 6 5 4 3 4 3 4 4 4 4 4 4 4 5 5 5 4 4 4 4 4 4 4 3 3 3 3 3 3
6 10 12 14 16 16 15 15 13 13 12 11 12 10 5 4 3 3 3 3 4 4 3 3 4 5 4 4 4 4 4 5 5 4 3 3 3 3 3 2 2 2 2 2
8 9 15 14 15 16 14 13 12 12 11 10 6 5 4 4 3 3 3 3 3 3 4 4 5 5 4 3 3 4 4 4 3 3 3 3 2 2 2 2 2 2 2 2
13 13 14 13 15 14 12 12 12 11 9 8 5 4 4 3 3 2 3 3 3 3 3 4 4 4 3 3 3 3 3 3 2 2 2 2 1 1 1 1 1 0 0 -0
14 13 12 11 10 10 11 11 10 9 8 7 5 4 3 3 2 2 3 3 3 3 2 1 2 2 2 2 2 2 2 1 1 0 0 0 0 -0 -1 -1 -1 -2 -2 -2
11 11 11 11 9 8 7 7 7 6 6 5 4 3 3 2 2 2 2 3 2 1 1 -1 -0 -0 -0 0 1 0 -0 -1 -1 -1 -1 -1 -1 -2 -2 -2 -3 -3 -3 -3
12 13 13 12 7 7 7 6 6 5 4 4 4 3 2 2 2 2 2 1 1 -0 -1 -2 -2 -2 -2 -2 -1 -2 -2 -3 -4 -4 -4 -5 -5 -5 -5 -4 -4 -4 -4 -4
15 11 7 7 5 5 5 4 4 4 4 3 2 2 2 1 1 1 0 -0 -2 -3 -3 -3 -3 -4 -4 -3 -3 -4 -5 -5 -6 -6 -7 -7 -7 -7 -7 -7 -6 -6 -6 -6
7 7 6 7 5 4 3 3 3 2 2 1 1 1 0 -0 0 -0 -2 -3 -3 -4 -4 -4 -5 -6 -5 -5 -5 -5 -6 -7 -7 -7 -8 -8 -8 -8 -8 -7 -7 -7 -7 -7
6 6 6 4 3 2 2 2 1 1 0 -0 0 -0 -0 -1 -2 -3 -3 -4 -4 -4 -5 -5 -6 -7 -6 -6 -7 -7 -8 -9 -9 -9 -9 -8 -9 -9 -9 -8 -8 -9 -9 -9
4 4 4 3 2 2 2 2 1 0 0 -0 -1 -1 -2 -3 -3 -3 -4 -4 -5 -6 -7 -7 -8 -8 -8 -8 -8 -9 -10 -10 -10 -10 -10 -11 -11 -11 -10 -10 -10 -11 -11 -11
4 3 3 2 2 2 1 1 1 1 0 -0 -2 -2 -3 -4 -5 -5 -6 -6 -6 -7 -8 -8 -9 -9 -10 -10 -10 -11 -11 -11 -11 -11 -12 -12 -12 -13 -13 -13 -13 -13 -13 -13
5 4 4 3 2 1 0 0 -0 -0 -1 -2 -3 -3 -4 -4 -5 -6 -7 -7 -7 -8 -9 -9 -9 -10 -11 -11 -12 -12 -12 -12 -12 -13 -13 -14 -14 -14 -14 -15 -15 -15 -15 -15
4 3 3 2 2 1 -0 -1 -2 -3 -3 -3 -3 -5 -5 -5 -6 -7 -7 -7 -8 -8 -10 -10 -10 -11 -12 -12 -12 -12 -13 -14 -14 -14 -15 -15 -16 -16 -16 -17 -17 -17 -17 -17
3 2 1 -0 -1 -1 -2 -3 -3 -4 -4 -3 -4 -5 -6 -6 -6 -7 -7 -9 -9 -9 -10 -10 -11 -12 -12 -13 -13 -14 -14 -15 -15 -16 -16 -17 -17 -17 -18 -18 -18 -18 -18 -18
0 -0 -1 -2 -2 -3 -3 -3 -4 -4 -5 -4 -5 -6 -7 -7 -7 -7 -8 -9 -10 -10 -11 -11 -12 -12 -13 -13 -14 -15 -15 -16 -16 -17 -18 -18 -18 -18 -19 -19 -19 -19 -19 -19
-1 -2 -3 -3 -3 -4 -4 -4 -5 -5 -5 -6 -6 -7 -7 -8 -8 -8 -9 -9 -10 -10 -11 -12 -12 -13 -13 -14 -15 -15 -16 -16 -17 -17 -18 -19 -19 -19 -19 -19 -20 -20 -20 -20
-2 -3 -4 -4 -4 -5 -6 -6 -5 -5 -6 -6 -7 -7 -7 -8 -8 -9 -9 -10 -11 -11 -12 -12 -13 -13 -14 -15 -15 -16 -17 -17 -18 -18 -19 -19 -20 -20 -20 -20 -20 -20 -20 -20
-3 -3 -4 -5 -5 -5 -5 -6 -7 -7 -7 -7 -7 -7 -8 -9 -10 -10 -10 -11 -11 -12 -12 -13 -14 -14 -15 -15 -16 -17 -17 -18 -18 -19 -19 -20 -20 -20 -20 -20 -20 -21 -21 -21
-4 -5 -5 -5 -5 -5 -6 -7 -8 -8 -8 -9 -9 -9 -9 -9 -9 -11 -11 -12 -12 -13 -13 -14 -15 -15 -16 -16 -17 -17 -18 -18 -19 -19 -20 -20 -21 -21 -20 -21 -21 -21 -21 -21
-4 -5 -5 -5 -6 -6 -7 -7 -8 -9 -9 -10 -10 -10 -10 -10 -11 -11 -12 -13 -13 -14 -14 -15 -16 -16 -17 -17 -17 -18 -18 -19 -19 -19 -20 -21 -21 -21 -21 -21 -21 -21 -21 -21
-7 -7 -8 -9 -9 -8 -8 -8 -9 -10 -10 -10 -10 -10 -11 -11 -12 -13 -13 -14 -14 -15 -15 -16 -17 -17 -17 -18 -18 -18 -19 -19 -20 -20 -21 -21 -21 -21 -22 -22 -22 -22 -22 -21

GFSNGP_925_temp_060.txt.gz
Temp
24 25 25 25 25 25 24 24 24 24 25 25 26 27 27 23 22 22 22 22 22 23 22 21 19 17 14 11 11 10 9 9 8 7 7 6 6 5 5 5 4 5 5 4
23 24 24 24 24 25 25 25 24 25 25 27 27 25 23 22 21 21 19 19 19 20 20 18 16 15 13 12 11 10 8 7 6 6 5 5 5 5 5 4 4 4 4 4
22 22 22 19 22 24 24 24 24 24 25 27 25 23 22 21 20 19 17 17 17 17 16 15 14 13 12 11 11 10 8 7 7 7 6 6 5 4 3 3 4 4 3 3
20 16 18 24 23 25 24 25 26 25 25 25 25 23 19 19 19 17 16 15 15 14 13 13 12 11 11 10 10 9 8 8 7 6 5 5 4 4 4 4 3 3 3 3
18 20 23 22 21 22 23 24 26 25 26 25 20 18 16 15 16 15 14 14 13 12 12 11 11 11 10 9 8 7 7 7 6 6 5 4 4 4 4 3 3 3 4 4
17 20 19 23 25 24 24 22 26 25 25 23 19 20 23 14 13 12 12 11 11 11 11 11 10 10 10 9 8 8 7 6 6 6 5 4 4 4 5 5 4 4 4 4
18 19 22 23 22 22 21 23 25 25 24 21 19 21 17 13 12 12 11 10 10 10 10 10 10 9 9 8 7 6 6 5 5 4 5 5 5 4 4 4 3 3 2 2
18 17 18 20 20 22 25 22 24 22 23 20 17 14 13 12 11 11 10 9 10 9 9 9 9 9 8 7 6 6 5 4 4 4 4 4 4 4 4 3 3 3 2 1
19 22 21 21 25 24 22 24 21 22 21 20 14 13 12 11 11 11 10 10 9 9 8 8 8 8 7 6 5 5 4 4 3 3 3 3 3 3 3 2 2 1 1 0
18 23 21 20 22 19 20 20 20 20 19 16 14 13 11 11 10 10 10 9 8 7 6 5 5 5 4 4 4 4 3 3 2 1 2 1 2 1 1 -0 -1 -1 -1 -2
21 22 18 18 19 21 18 17 17 18 18 16 14 12 11 10 10 10 9 8 7 6 5 4 3 2 2 2 3 3 2 1 1 0 0 1 -0 -2 -2 -3 -5 -4 -3 -4
20 23 21 24 21 21 18 17 17 16 15 14 13 12 11 10 10 9 7 7 6 4 3 1 -0 -1 -0 1 1 1 1 -0 -2 -1 -2 -1 -1 -1 -4 -5 -6 -7 -7 -8
22 21 21 15 14 16 17 17 15 15 14 13 12 11 10 9 8 7 6 5 3 2 -0 -1 -2 -1 -1 -2 -2 -1 -1 -2 -3 -3 -3 -3 -3 -3 -3 -4 -6 -7 -8 -9
18 15 17 14 18 13 13 13 11 13 12 11 10 9 8 7 5 6 4 2 0 -1 -2 -2 -2 -2 -3 -3 -3 -4 -5 -5 -4 -4 -4 -5 -5 -5 -5 -5 -5 -6 -7 -9
16 15 15 13 12 11 11 10 10 10 9 9 8 7 6 6 5 3 1 -0 -1 -2 -2 -2 -2 -3 -4 -4 -4 -4 -4 -5 -6 -6 -7 -7 -7 -7 -7 -7 -7 -7 -7 -8
15 12 11 12 11 10 9 9 9 7 7 7 7 6 5 4 2 0 -1 -1 -1 -1 -2 -5 -5 -5 -5 -5 -5 -5 -6 -9 -8 -7 -7 -8 -8 -8 -8 -8 -8 -8 -9 -9
11 10 10 10 10 9 9 9 8 7 6 6 5 4 2 0 -0 -1 -3 -5 -6 -6 -7 -6 -6 -6 -7 -7 -6 -6 -7 -8 -10 -8 -9 -9 -9 -9 -9 -9 -10 -10 -10 -11
11 11 10 10 9 7 6 6 6 5 4 2 -1 -2 -3 -3 -4 -5 -7 -7 -7 -7 -7 -7 -8 -8 -9 -9 -9 -9 -10 -10 -10 -10 -10 -11 -12 -11 -11 -11 -11 -11 -12 -12
9 8 8 7 7 6 4 4 2 -1 -2 -2 -3 -4 -5 -5 -5 -6 -7 -8 -8 -7 -8 -9 -10 -10 -10 -11 -11 -11 -11 -11 -11 -12 -12 -13 -12 -12 -12 -13 -13 -13 -13 -13
2 2 2 1 1 0 -1 -2 -2 -2 -3 -4 -4 -5 -6 -6 -7 -7 -7 -6 -6 -7 -9 -10 -10 -10 -11 -13 -12 -12 -12 -13 -13 -13 -13 -14 -13 -14 -14 -14 -15 -14 -14 -14
-0 -1 -1 -1 -2 -3 -3 -3 -3 -4 -4 -4 -5 -5 -6 -7 -7 -8 -7 -7 -9 -9 -10 -11 -10 -11 -12 -12 -12 -13 -13 -13 -13 -13 -14 -14 -14 -14 -15 -15 -15 -15 -15 -15
-2 -2 -2 -2 -3 -3 -4 -4 -5 -5 -5 -6 -6 -7 -7 -7 -7 -8 -7 -7 -9 -10 -10 -10 -11 -12 -13 -13 -13 -13 -13 -14 -14 -14 -14 -15 -15 -16 -16 -16 -16 -17 -17 -17
-2 -2 -3 -4 -4 -4 -5 -5 -6 -6 -6 -6 -6 -6 -6 -6 -6 -6 -7 -9 -9 -11 -10 -11 -13 -13 -14 -14 -14 -14 -14 -15 -15 -15 -16 -16 -16 -17 -17 -17 -18 -18 -18 -18
-3 -4 -4 -4 -4 -4 -4 -6 -6 -7 -7 -7 -8 -7 -7 -7 -8 -9 -10 -11 -11 -11 -12 -13 -14 -14 -14 -15 -15 -15 -15 -15 -16 -16 -16 -17 -17 -18 -18 -19 -19 -19 -19 -19
-4 -4 -4 -4 -5 -5 -6 -6 -6 -7 -7 -7 -8 -8 -9 -9 -8 -10 -11 -12 -12 -12 -12 -14 -14 -15 -15 -15 -15 -16 -16 -16 -16 -17 -17 -17 -18 -18 -19 -19 -20 -20 -21 -21
-5 -5 -6 -6 -6 -6 -6 -7 -7 -7 -7 -8 -9 -9 -10 -11 -11 -11 -12 -13 -13 -14 -14 -14 -15 -16 -16 -16 -16 -17 -17 -17 -17 -17 -18 -19 -19 -19 -20 -20 -21 -21 -22 -22
-7 -7 -7 -8 -8 -8 -8 -8 -8 -8 -9 -9 -9 -10 -11 -11 -12 -13 -13 -13 -14 -15 -15 -15 -16 -16 -17 -17 -17 -17 -18 -18 -18 -19 -20 -20 -20 -20 -21 -22 -22 -23 -23 -23